Weather History for KFHU - February, 2014

Change the Weather History Date:

Monday, February 3, 2014

  Actual Average Record
Temperature  
Mean Temperature 43 °F -  
Max Temperature 53 °F 59 °F 69 °F (1987)
Min Temperature 33 °F 37 °F 3 °F (2011)
Degree Days  
Heating Degree Days 22    
Moisture  
Dew Point 19 °F    
Average Humidity 47    
Maximum Humidity 87    
Minimum Humidity 11    
Precipitation  
Precipitation 0.01 in - - ()
Sea Level Pressure  
Sea Level Pressure 29.85 in    
Wind  
Wind Speed 9 mph (West)    
Max Wind Speed 24 mph    
Max Gust Speed 34 mph    
Visibility 10 miles    
Events Rain    
Averages and records for this station are not official NWS values.
T = Trace of Precipitation, MM = Missing Value Source: NWS Daily Summary

Daily Weather History Graph

Daily Weather History Graph

Search for Another Location

Airport or City:

Trip Planner

Search our weather history database for the weather conditions in past years. The results will help you decide how hot, cold, wet, or windy it might be!

Date:

Astronomy

Feb. 03, 2014 Rise Set
Actual Time 7:12 AM MST 5:57 PM MST
Civil Twilight 6:47 AM MST 6:23 PM MST
Nautical Twilight 6:18 AM MST 6:52 PM MST
Astronomical Twilight 5:49 AM MST 7:21 PM MST
Moon 9:36 AM MST 10:30 PM MST
Length of Visible Light 11h 35m
Length of Day
10h 45m
Waxing Crescent, 20% of the Moon is Illuminated
Feb 3
Waxing Crescent
Feb 6
First Quarter
Feb 14
Full
Feb 22
Last Quarter
Mar 1
New

Hourly Weather History & Observations

Time (MST) Temp. Windchill Dew Point Humidity Pressure Visibility Wind Dir Wind Speed Gust Speed Precip Events Conditions
12:55 AM 39.2 °F 35.0 °F 12.2 °F 33% 29.92 in 10.0 mi West 5.8 mph - N/A   Scattered Clouds
1:55 AM 42.8 °F 40.1 °F 12.2 °F 29% 29.90 in 10.0 mi WSW 4.6 mph - N/A   Scattered Clouds
2:55 AM 39.2 °F - 10.4 °F 31% 29.87 in 10.0 mi Calm Calm - N/A   Partly Cloudy
3:55 AM 37.4 °F 32.8 °F 10.4 °F 33% 29.87 in 10.0 mi WNW 5.8 mph - N/A   Partly Cloudy
4:55 AM 35.6 °F - 10.4 °F 35% 29.86 in 10.0 mi Calm Calm - N/A   Partly Cloudy
5:55 AM 35.6 °F 28.6 °F 10.4 °F 35% 29.86 in 7.0 mi WSW 9.2 mph - N/A   Partly Cloudy
6:55 AM 33.8 °F 30.8 °F 10.4 °F 38% 29.87 in 10.0 mi NNW 3.5 mph - N/A   Partly Cloudy
7:55 AM 37.4 °F 31.4 °F 12.2 °F 36% 29.87 in 10.0 mi WNW 8.1 mph - N/A   Mostly Cloudy
8:55 AM 42.8 °F 41.1 °F 14.0 °F 31% 29.86 in 10.0 mi East 3.5 mph - N/A   Mostly Cloudy
9:55 AM 44.6 °F 39.7 °F 12.2 °F 27% 29.86 in 10.0 mi NE 9.2 mph - N/A   Mostly Cloudy
10:55 AM 48.2 °F - 12.2 °F 24% 29.85 in 10.0 mi East 5.8 mph - N/A   Mostly Cloudy
11:55 AM 53.6 °F - -0.4 °F 11% 29.80 in 10.0 mi WSW 11.5 mph 16.1 mph N/A   Mostly Cloudy
12:55 PM 53.6 °F - 5.0 °F 14% 29.76 in 10.0 mi SW 15.0 mph 21.9 mph N/A   Scattered Clouds
1:55 PM 53.6 °F - 8.6 °F 16% 29.73 in 10.0 mi West 15.0 mph 27.6 mph N/A   Scattered Clouds
2:55 PM 53.6 °F - 10.4 °F 18% 29.73 in 10.0 mi SW 18.4 mph 29.9 mph N/A   Mostly Cloudy
3:55 PM 50.0 °F - 15.8 °F 26% 29.76 in 10.0 mi WSW 24.2 mph 31.1 mph N/A   Overcast
4:55 PM 48.2 °F - 19.4 °F 32% 29.79 in 10.0 mi WSW 20.7 mph 34.5 mph N/A   Overcast
5:55 PM 44.6 °F 36.4 °F 19.4 °F 37% 29.81 in 10.0 mi WSW 20.7 mph 26.5 mph N/A   Mostly Cloudy
6:42 PM 39.2 °F 30.2 °F 30.2 °F 70% 29.84 in 10.0 mi West 17.3 mph 24.2 mph N/A Rain Light Rain
6:55 PM 39.2 °F 30.2 °F 30.2 °F 70% 29.87 in 10.0 mi West 17.3 mph 24.2 mph N/A Rain Light Rain
7:01 PM 37.4 °F 28.9 °F 32.0 °F 81% 29.86 in 10.0 mi WNW 13.8 mph 23.0 mph N/A Rain Light Rain
7:39 PM 37.4 °F 29.8 °F 33.8 °F 87% 29.88 in 8.0 mi West 11.5 mph - N/A Rain Light Rain
7:55 PM 37.4 °F 29.8 °F 33.8 °F 87% 29.88 in 9.0 mi West 11.5 mph - N/A Rain Light Rain
8:23 PM 39.2 °F 29.8 °F 32.0 °F 75% 29.87 in 10.0 mi WSW 18.4 mph 24.2 mph N/A Rain Light Rain
8:55 PM 37.4 °F 27.5 °F 33.8 °F 87% 29.88 in 10.0 mi WSW 18.4 mph 27.6 mph N/A Rain Light Rain
9:08 PM 37.4 °F 26.9 °F 30.2 °F 75% 29.89 in 10.0 mi West 20.7 mph 26.5 mph N/A   Overcast
9:55 PM 35.6 °F 28.0 °F 30.2 °F 81% 29.90 in 10.0 mi West 10.4 mph - N/A   Partly Cloudy
10:55 PM 35.6 °F 28.6 °F 28.4 °F 75% 29.89 in 10.0 mi WSW 9.2 mph - N/A   Partly Cloudy
11:55 PM 35.6 °F 28.6 °F 28.4 °F 75% 29.88 in 10.0 mi West 9.2 mph - N/A   Partly Cloudy